TimeEST,TemperatureF,Dew PointF,Humidity,Sea Level PressureIn,VisibilityMPH,Wind Direction,Wind SpeedMPH,Gust SpeedMPH,PrecipitationIn,Events,Conditions,WindDirDegrees,DateUTC
12:18 AM,10.4,8.6,92,30.11,9.0,Calm,Calm,-,N/A,Snow,Light Snow,0,2013-01-26 05:18:00
12:30 AM,10.4,10.4,100,30.11,8.0,Calm,Calm,-,N/A,,Overcast,0,2013-01-26 05:30:00
12:31 AM,10.4,10.4,100,30.11,8.0,Calm,Calm,-,N/A,,Light Freezing Drizzle,0,2013-01-26 05:31:00
12:38 AM,10.4,10.4,100,30.10,9.0,Calm,Calm,-,N/A,,Overcast,0,2013-01-26 05:38:00
12:39 AM,10.4,10.4,100,30.10,9.0,Calm,Calm,-,N/A,,Light Freezing Drizzle,0,2013-01-26 05:39:00
12:55 AM,10.4,9.7,97,30.11,10.0,Calm,Calm,-,0.00,,Light Freezing Drizzle,0,2013-01-26 05:55:00
1:08 AM,10.4,10.4,100,30.11,10.0,Calm,Calm,-,N/A,,Overcast,0,2013-01-26 06:08:00
1:21 AM,10.4,10.4,100,30.10,8.0,Calm,Calm,-,N/A,Snow,Light Snow,0,2013-01-26 06:21:00
1:46 AM,10.4,10.4,100,30.10,7.0,Calm,Calm,-,N/A,Snow,Light Snow,0,2013-01-26 06:46:00
1:51 AM,10.4,10.4,100,30.10,9.0,Calm,Calm,-,N/A,,Overcast,0,2013-01-26 06:51:00
1:52 AM,12.2,10.4,92,30.10,9.0,Calm,Calm,-,N/A,,Light Freezing Drizzle,0,2013-01-26 06:52:00
1:55 AM,11.7,11.1,98,30.10,10.0,Calm,Calm,-,0.00,,Light Freezing Drizzle,0,2013-01-26 06:55:00
2:45 AM,12.2,12.2,100,30.10,9.0,Calm,Calm,-,N/A,,Overcast,0,2013-01-26 07:45:00
2:46 AM,12.2,12.2,100,30.10,9.0,Calm,Calm,-,N/A,,Light Freezing Drizzle,0,2013-01-26 07:46:00
2:55 AM,12.2,11.7,98,30.10,10.0,Calm,Calm,-,0.00,Snow,Light Snow,0,2013-01-26 07:55:00
3:07 AM,12.2,12.2,100,30.11,10.0,Calm,Calm,-,N/A,,Overcast,0,2013-01-26 08:07:00
3:08 AM,12.2,12.2,100,30.11,10.0,Calm,Calm,-,N/A,,Light Freezing Drizzle,0,2013-01-26 08:08:00
3:28 AM,12.2,12.2,100,30.11,10.0,Calm,Calm,-,N/A,,Overcast,0,2013-01-26 08:28:00
3:29 AM,12.2,12.2,100,30.11,10.0,Calm,Calm,-,N/A,,Light Freezing Drizzle,0,2013-01-26 08:29:00
3:55 AM,13.5,12.9,98,30.12,10.0,South,4.6,-,0.00,Snow,Light Snow,190,2013-01-26 08:55:00
4:55 AM,14.0,13.5,98,30.13,6.0,SW,3.5,-,0.00,Snow,Light Snow,230,2013-01-26 09:55:00
5:11 AM,14.0,14.0,100,30.13,10.0,Calm,Calm,-,N/A,,Overcast,0,2013-01-26 10:11:00
5:12 AM,14.0,14.0,100,30.13,10.0,Calm,Calm,-,N/A,,Light Freezing Drizzle,0,2013-01-26 10:12:00
5:41 AM,14.0,12.2,93,30.14,9.0,West,5.8,-,N/A,,Partly Cloudy,280,2013-01-26 10:41:00
5:55 AM,14.0,10.6,86,30.15,10.0,West,6.9,-,0.00,,Clear,260,2013-01-26 10:55:00
6:55 AM,11.7,10.6,95,30.19,10.0,WSW,4.6,-,N/A,,Mostly Cloudy,250,2013-01-26 11:55:00
7:01 AM,12.2,10.4,92,30.19,10.0,WSW,4.6,-,N/A,Snow,Light Snow,250,2013-01-26 12:01:00
7:27 AM,14.0,10.4,86,30.20,10.0,West,6.9,-,N/A,Snow,Light Snow,280,2013-01-26 12:27:00
7:44 AM,15.8,12.2,86,30.20,10.0,West,5.8,-,N/A,,Overcast,270,2013-01-26 12:44:00
7:55 AM,16.5,11.1,79,30.21,10.0,West,4.6,-,0.00,,Overcast,270,2013-01-26 12:55:00
8:55 AM,18.1,10.4,72,30.22,10.0,Variable,4.6,-,N/A,,Overcast,0,2013-01-26 13:55:00
9:13 AM,17.6,10.4,73,30.22,10.0,NW,5.8,-,N/A,Snow,Light Snow,320,2013-01-26 14:13:00
9:23 AM,19.4,10.4,68,30.22,10.0,NNW,3.5,-,N/A,,Overcast,330,2013-01-26 14:23:00
9:35 AM,19.4,10.4,68,30.23,10.0,NW,4.6,-,N/A,Snow,Light Snow,310,2013-01-26 14:35:00
9:48 AM,19.4,10.4,68,30.23,10.0,Calm,Calm,-,N/A,,Overcast,0,2013-01-26 14:48:00
9:54 AM,19.4,10.4,68,30.24,10.0,Variable,5.8,-,N/A,Snow,Light Snow,0,2013-01-26 14:54:00
9:55 AM,19.2,10.4,69,30.24,10.0,West,6.9,-,0.00,Snow,Light Snow,280,2013-01-26 14:55:00
10:07 AM,19.4,10.4,68,30.24,10.0,Calm,Calm,-,N/A,,Mostly Cloudy,0,2013-01-26 15:07:00
10:21 AM,19.4,10.4,68,30.25,10.0,WNW,5.8,-,N/A,Snow,Light Snow,290,2013-01-26 15:21:00
10:28 AM,19.4,10.4,68,30.26,10.0,Variable,4.6,-,N/A,,Overcast,0,2013-01-26 15:28:00
10:55 AM,20.5,10.4,65,30.28,10.0,Variable,3.5,-,0.00,,Overcast,0,2013-01-26 15:55:00
11:11 AM,21.2,10.4,63,30.27,10.0,NNW,4.6,-,N/A,,Mostly Cloudy,330,2013-01-26 16:11:00
11:18 AM,21.2,10.4,63,30.27,10.0,North,5.8,-,N/A,,Mostly Cloudy,10,2013-01-26 16:18:00
11:32 AM,21.2,10.4,63,30.25,10.0,WNW,3.5,-,N/A,,Mostly Cloudy,300,2013-01-26 16:32:00
11:42 AM,21.2,10.4,63,30.25,10.0,NW,4.6,-,N/A,,Overcast,310,2013-01-26 16:42:00
11:55 AM,21.0,10.4,64,30.24,10.0,WNW,4.6,-,0.00,,Overcast,290,2013-01-26 16:55:00
12:55 PM,23.4,9.3,55,30.23,10.0,Calm,Calm,-,N/A,,Scattered Clouds,0,2013-01-26 17:55:00
1:55 PM,24.8,10.0,54,30.23,10.0,NW,9.2,-,N/A,,Partly Cloudy,310,2013-01-26 18:55:00
2:55 PM,25.5,10.0,52,30.24,10.0,West,10.4,20.7,N/A,,Partly Cloudy,270,2013-01-26 19:55:00
3:55 PM,24.8,12.0,58,30.26,10.0,WNW,4.6,-,N/A,,Mostly Cloudy,300,2013-01-26 20:55:00
4:55 PM,24.4,10.8,56,30.29,10.0,Variable,3.5,-,N/A,,Partly Cloudy,0,2013-01-26 21:55:00
5:55 PM,22.6,10.0,59,30.30,10.0,Calm,Calm,-,N/A,,Clear,0,2013-01-26 22:55:00
6:55 PM,18.5,8.8,66,30.33,10.0,WSW,3.5,-,N/A,,Clear,240,2013-01-26 23:55:00
7:55 PM,15.6,9.9,78,30.35,10.0,Calm,Calm,-,N/A,,Clear,0,2013-01-27 00:55:00
8:55 PM,12.0,8.4,85,30.37,10.0,Calm,Calm,-,N/A,,Clear,0,2013-01-27 01:55:00
9:55 PM,9.3,7.0,90,30.40,10.0,Calm,Calm,-,N/A,,Clear,0,2013-01-27 02:55:00
10:55 PM,6.6,5.2,94,30.42,10.0,Calm,Calm,-,N/A,,Clear,0,2013-01-27 03:55:00
11:55 PM,6.3,5.5,97,30.43,10.0,Calm,Calm,-,N/A,,Clear,0,2013-01-27 04:55:00